Terug naar catalogus

KUIPER-00105

ActiefCommunicatieLEO
NORAD 65143·PAYLOAD·🇺🇸 United States

Gelanceerd Aug 11, 2025 vanaf Cape Canaveral Space Force Station

Loading…

Volgende Passages (komende 24 uur)

TLE

VersSource: CelesTrak SupGP

Epoch: Sep 14, 2026, 15:11 UTC

1 65143C 25171M   26257.63309028  .00001443  00000+0  18885-3 0  2579
2 65143  51.9006  50.1489 0000643 113.7366 327.8144 14.79931948    14

Volg KUIPER-00105 in realtime met AllMySat

Download on the App Store